{"data":{"norad_id":65775,"intl_designator":"2025-217P","name":"KUIPER-00156","alt_names":[],"object_type":"PAYLOAD","status":"ACTIVE","operator":null,"country":"US","launch_date":"2025-09-25","launch_site_code":"AFETR","launch_vehicle":null,"mission":null,"orbit_class":"UNKNOWN","rcs_meters":null,"size_class":null,"mass_kg":null,"dimensions":null,"purposes":[],"wikipedia_slug":null,"has_3d_model":false,"image_url":null,"decayed_at":null,"tle_current":{"epoch":"2026-05-25T02:41:32.267328Z","epoch_age_seconds":59212,"freshness":"FRESH","line1":"1 65775U 25217P   26145.11217902  .00000617  00000+0  10997-3 0  9990","line2":"2 65775  51.9035  47.7053 0000792 101.4410 258.6641 14.79932070 36430","mean_motion":14.7993207,"eccentricity":7.92e-5,"inclination_deg":51.9035,"raan_deg":47.7053,"arg_perigee_deg":101.441,"mean_anomaly_deg":258.6641,"bstar":0.00010997,"rev_number":3643,"period_min":97.301763316745,"perigee_km":628.98355705133,"apogee_km":630.09357286082,"semimajor_km":7007.6755649561,"source":"CELESTRAK","updated_at":"2026-05-25T13:38:05.685893Z"}}}